| time (UTC) | temp C | wind direction | speed KPH | gust KPH | rain 1hr cm | rain 24hr cm | rain mn cm | humidity % | barometer mb |
| 20260509051557 | 12 | 0 | 0.0 | 3.2 | 0.00 | 0.00 | 0.00 | 80 | 1023.6 |
| 20260509050049 | 12 | 306 | 1.6 | 6.4 | 0.00 | 0.00 | 0.00 | 80 | 1023.4 |
| 20260509044545 | 12 | 293 | 0.0 | 8.0 | 0.00 | 0.00 | 0.00 | 80 | 1023.4 |
| 20260509043042 | 13 | 0 | 0.0 | 0.0 | 0.00 | 0.00 | 0.00 | 78 | 1023.4 |
| 20260509041541 | 13 | 0 | 0.0 | 4.8 | 0.00 | 0.00 | 0.00 | 76 | 1023.0 |
| 20260509040043 | 14 | 272 | 0.0 | 4.8 | 0.00 | 0.00 | 0.00 | 75 | 1022.8 |
| 20260509034550 | 15 | 283 | 1.6 | 4.8 | 0.00 | 0.00 | 0.00 | 73 | 1022.6 |
| 20260509033051 | 15 | 295 | 1.6 | 6.4 | 0.00 | 0.00 | 0.00 | 70 | 1022.6 |
| 20260509031546 | 16 | 0 | 1.6 | 6.4 | 0.00 | 0.00 | 0.00 | 70 | 1022.7 |
| 20260509030042 | 16 | 320 | 0.0 | 3.2 | 0.00 | 0.00 | 0.00 | 68 | 1022.7 |
| 20260509024542 | 16 | 0 | 0.0 | 4.8 | 0.00 | 0.00 | 0.00 | 67 | 1022.7 |
| 20260509023046 | 16 | 13 | 3.2 | 8.0 | 0.00 | 0.00 | 0.00 | 65 | 1022.4 |
| 20260509021544 | 16 | 22 | 3.2 | 6.4 | 0.00 | 0.00 | 0.00 | 65 | 1022.3 |
| 20260509020047 | 17 | 27 | 1.6 | 6.4 | 0.00 | 0.00 | 0.00 | 64 | 1022.5 |
| 20260509014547 | 16 | 333 | 1.6 | 8.0 | 0.00 | 0.00 | 0.00 | 65 | 1022.4 |
| 20260509013050 | 17 | 352 | 3.2 | 12.9 | 0.00 | 0.00 | 0.00 | 62 | 1022.4 |
| 20260509011546 | 17 | 5 | 1.6 | 6.4 | 0.00 | 0.00 | 0.00 | 62 | 1022.4 |
| 20260509010047 | 17 | 49 | 3.2 | 9.7 | 0.00 | 0.00 | 0.00 | 62 | 1022.6 |
| 20260509004547 | 17 | 327 | 4.8 | 9.7 | 0.00 | 0.00 | 0.00 | 57 | 1022.4 |
| 20260509003044 | 18 | 23 | 3.2 | 9.7 | 0.00 | 0.00 | 0.00 | 57 | 1022.5 |
| 20260509001542 | 18 | 32 | 4.8 | 8.0 | 0.00 | 0.00 | 0.00 | 57 | 1022.7 |
| 20260509000041 | 18 | 0 | 3.2 | 8.0 | 0.00 | 0.00 | 0.00 | 58 | 1022.7 |
| 20260508234548 | 18 | 5 | 3.2 | 8.0 | 0.00 | 0.00 | 0.00 | 61 | 1022.7 |
| 20260508233059 | 18 | 0 | 0.0 | 6.4 | 0.00 | 0.00 | 0.00 | 56 | 1022.7 |
| 20260508231546 | 18 | 0 | 1.6 | 11.3 | 0.00 | 0.00 | 0.00 | 58 | 1022.7 |
| 20260508230052 | 18 | 48 | 4.8 | 9.7 | 0.00 | 0.00 | 0.00 | 54 | 1022.6 |
| 20260508224600 | 19 | 318 | 4.8 | 12.9 | 0.00 | 0.00 | 0.00 | 54 | 1022.6 |
| 20260508223048 | 19 | 0 | 3.2 | 9.7 | 0.00 | 0.00 | 0.00 | 51 | 1022.5 |
| 20260508221551 | 18 | 348 | 4.8 | 9.7 | 0.00 | 0.00 | 0.00 | 54 | 1022.6 |
| 20260508220043 | 18 | 22 | 3.2 | 12.9 | 0.00 | 0.00 | 0.00 | 56 | 1022.6 |
| 20260508214541 | 18 | 16 | 4.8 | 9.7 | 0.00 | 0.00 | 0.00 | 55 | 1022.6 |
| 20260508213049 | 18 | 186 | 3.2 | 9.7 | 0.00 | 0.00 | 0.00 | 55 | 1022.7 |
| 20260508211543 | 17 | 0 | 1.6 | 8.0 | 0.00 | 0.00 | 0.00 | 57 | 1022.8 |
| 20260508210043 | 16 | 0 | 1.6 | 8.0 | 0.00 | 0.00 | 0.00 | 58 | 1022.8 |
| 20260508204550 | 16 | 38 | 3.2 | 9.7 | 0.00 | 0.00 | 0.00 | 59 | 1022.8 |
| 20260508203054 | 16 | 59 | 3.2 | 11.3 | 0.00 | 0.00 | 0.00 | 62 | 1022.8 |
| 20260508201544 | 16 | 329 | 1.6 | 14.5 | 0.00 | 0.00 | 0.00 | 59 | 1022.8 |
| 20260508200049 | 16 | 341 | 3.2 | 14.5 | 0.00 | 0.00 | 0.00 | 62 | 1023.1 |
| 20260508194552 | 15 | 254 | 6.4 | 14.5 | 0.00 | 0.00 | 0.00 | 60 | 1023.0 |
| 20260508193048 | 15 | 323 | 3.2 | 14.5 | 0.00 | 0.00 | 0.00 | 63 | 1023.0 |
| 20260508191552 | 15 | 340 | 3.2 | 14.5 | 0.00 | 0.00 | 0.00 | 64 | 1023.0 |
| 20260508190044 | 13 | 346 | 4.8 | 11.3 | 0.00 | 0.00 | 0.00 | 64 | 1022.9 |
| 20260508184547 | 13 | 5 | 3.2 | 17.7 | 0.00 | 0.00 | 0.00 | 64 | 1022.9 |
| 20260508183041 | 13 | 315 | 9.7 | 19.3 | 0.00 | 0.00 | 0.00 | 64 | 1023.0 |
| 20260508181548 | 13 | 17 | 6.4 | 16.1 | 0.00 | 0.00 | 0.00 | 65 | 1023.0 |
| 20260508180048 | 13 | 46 | 4.8 | 14.5 | 0.00 | 0.00 | 0.00 | 67 | 1022.9 |
| 20260508174558 | 13 | 352 | 3.2 | 9.7 | 0.00 | 0.00 | 0.00 | 71 | 1022.8 |
| 20260508173040 | 13 | 338 | 3.2 | 6.4 | 0.00 | 0.00 | 0.00 | 68 | 1022.7 |
| 20260508171541 | 13 | 134 | 3.2 | 8.0 | 0.00 | 0.00 | 0.00 | 69 | 1022.4 |
| 20260508170049 | 12 | 343 | 4.8 | 9.7 | 0.00 | 0.00 | 0.00 | 71 | 1022.3 |
| 20260508164549 | 12 | 0 | 1.6 | 4.8 | 0.00 | 0.00 | 0.00 | 71 | 1022.4 |
| 20260508163048 | 12 | 130 | 1.6 | 6.4 | 0.00 | 0.00 | 0.00 | 75 | 1022.2 |
| 20260508161546 | 11 | 319 | 1.6 | 6.4 | 0.00 | 0.00 | 0.00 | 75 | 1022.2 |
| 20260508160049 | 11 | 0 | 0.0 | 3.2 | 0.00 | 0.00 | 0.00 | 77 | 1022.0 |
| 20260508154548 | 11 | 0 | 0.0 | 3.2 | 0.00 | 0.00 | 0.00 | 78 | 1022.0 |
| 20260508153043 | 11 | 0 | 0.0 | 3.2 | 0.00 | 0.00 | 0.00 | 79 | 1022.0 |
| 20260508151545 | 10 | 80 | 1.6 | 4.8 | 0.00 | 0.00 | 0.00 | 84 | 1021.6 |
| 20260508150048 | 9 | 0 | 0.0 | 3.2 | 0.00 | 0.00 | 0.00 | 86 | 1021.4 |
| 20260508144550 | 8 | 194 | 0.0 | 1.6 | 0.00 | 0.00 | 0.00 | 87 | 1021.3 |
| 20260508143051 | 8 | 200 | 0.0 | 4.8 | 0.00 | 0.00 | 0.00 | 87 | 1021.3 |
| 20260508141543 | 8 | 0 | 0.0 | 0.0 | 0.00 | 0.00 | 0.00 | 87 | 1021.2 |
| 20260508140047 | 8 | 0 | 0.0 | 1.6 | 0.00 | 0.00 | 0.00 | 89 | 1021.2 |
| 20260508134547 | 7 | 176 | 1.6 | 4.8 | 0.00 | 0.00 | 0.00 | 87 | 1021.0 |
| 20260508133055 | 7 | 176 | 1.6 | 4.8 | 0.00 | 0.00 | 0.00 | 85 | 1020.6 |
| 20260508131550 | 8 | 135 | 1.6 | 6.4 | 0.00 | 0.00 | 0.00 | 83 | 1020.3 |
| 20260508124551 | 8 | 352 | 1.6 | 8.0 | 0.00 | 0.00 | 0.00 | 80 | 1020.0 |
| 20260508123056 | 8 | 348 | 3.2 | 12.9 | 0.00 | 0.00 | 0.00 | 78 | 1019.7 |
| 20260508121548 | 8 | 280 | 6.4 | 14.5 | 0.00 | 0.00 | 0.00 | 78 | 1019.5 |
| 20260508120049 | 8 | 11 | 3.2 | 12.9 | 0.00 | 0.00 | 0.00 | 81 | 1019.6 |
| 20260508114551 | 7 | 331 | 3.2 | 16.1 | 0.00 | 0.00 | 0.00 | 88 | 1019.5 |
| 20260508113044 | 7 | 261 | 0.0 | 1.6 | 0.00 | 0.00 | 0.00 | 92 | 1019.4 |
| 20260508111548 | 7 | 0 | 1.6 | 4.8 | 0.00 | 0.00 | 0.00 | 92 | 1019.4 |
| 20260508110050 | 7 | 0 | 0.0 | 3.2 | 0.00 | 0.00 | 0.00 | 92 | 1018.9 |
| 20260508104552 | 7 | 261 | 1.6 | 3.2 | 0.00 | 0.00 | 0.00 | 92 | 1018.8 |
| 20260508103050 | 7 | 0 | 0.0 | 1.6 | 0.00 | 0.00 | 0.00 | 92 | 1018.6 |
| 20260508101547 | 7 | 0 | 0.0 | 1.6 | 0.00 | 0.00 | 0.00 | 91 | 1018.5 |
| 20260508100043 | 7 | 0 | 1.6 | 3.2 | 0.00 | 0.00 | 0.00 | 90 | 1018.4 |
| 20260508094547 | 8 | 261 | 1.6 | 4.8 | 0.00 | 0.00 | 0.00 | 91 | 1018.3 |
| 20260508093054 | 7 | 261 | 1.6 | 3.2 | 0.00 | 0.00 | 0.00 | 92 | 1018.2 |
| 20260508091557 | 7 | 261 | 1.6 | 4.8 | 0.00 | 0.00 | 0.00 | 92 | 1018.1 |
| 20260508090059 | 7 | 0 | 0.0 | 3.2 | 0.00 | 0.00 | 0.00 | 90 | 1018.0 |
| 20260508084547 | 8 | 0 | 0.0 | 3.2 | 0.00 | 0.00 | 0.00 | 89 | 1017.9 |
| 20260508083044 | 8 | 0 | 0.0 | 3.2 | 0.00 | 0.00 | 0.00 | 89 | 1017.9 |
| 20260508081555 | 8 | 244 | 3.2 | 4.8 | 0.00 | 0.00 | 0.00 | 88 | 1017.8 |
| 20260508080052 | 8 | 244 | 1.6 | 4.8 | 0.00 | 0.00 | 0.00 | 87 | 1017.8 |
| 20260508074549 | 9 | 0 | 0.0 | 3.2 | 0.00 | 0.00 | 0.00 | 86 | 1017.8 |
| 20260508073054 | 10 | 247 | 1.6 | 3.2 | 0.00 | 0.00 | 0.00 | 83 | 1017.8 |
| 20260508071555 | 10 | 263 | 1.6 | 4.8 | 0.00 | 0.00 | 0.00 | 82 | 1017.8 |
| 20260508070056 | 10 | 236 | 1.6 | 4.8 | 0.00 | 0.00 | 0.00 | 84 | 1017.7 |
| 20260508064544 | 10 | 236 | 1.6 | 4.8 | 0.00 | 0.00 | 0.00 | 85 | 1017.7 |
| 20260508063043 | 10 | 236 | 3.2 | 4.8 | 0.00 | 0.00 | 0.00 | 83 | 1017.7 |
| 20260508061548 | 10 | 242 | 1.6 | 6.4 | 0.00 | 0.00 | 0.00 | 82 | 1017.7 |
| 20260508060048 | 11 | 222 | 1.6 | 4.8 | 0.00 | 0.00 | 0.00 | 82 | 1017.9 |
| 20260508054550 | 11 | 273 | 1.6 | 3.2 | 0.00 | 0.00 | 0.00 | 79 | 1017.9 |
| 20260508053051 | 12 | 0 | 0.0 | 3.2 | 0.00 | 0.00 | 0.00 | 78 | 1018.1 |